Weather History for Redmond, OR

Change the Weather History Date:

Monday, December 9, 2013

  Actual Average Record
Temperature  
Mean Temperature 11 °F 31 °F  
Max Temperature 30 °F 41 °F 60 °F (1988)
Min Temperature -9 °F 21 °F -22 °F (1972)
Degree Days  
Heating Degree Days 54 34  
Month to date heating degree days 448 302  
Since 1 July heating degree days 2234 2076  
Cooling Degree Days 0 0  
Month to date cooling degree days 0 0  
Year to date cooling degree days 350 222  
Moisture  
Dew Point 2 °F    
Average Humidity 69    
Maximum Humidity 91    
Minimum Humidity 46    
Precipitation  
Precipitation 0.00 in 0.04 in 0.26 in (1966)
Month to date precipitation 0.30 0.36  
Year to date precipitation 4.73 8.10  
Sea Level Pressure  
Sea Level Pressure 30.55 in    
Wind  
Wind Speed 5 mph (SE)    
Max Wind Speed 10 mph    
Max Gust Speed 13 mph    
Visibility 10 miles    
Events      
T = Trace of Precipitation, MM = Missing Value Source: NWS Daily Summary

Daily Weather History Graph

Daily Weather History Graph

Search for Another Location

Airport:

Trip Planner

Search our weather history database for the weather conditions in past years. The results will help you decide how hot, cold, wet, or windy it might be!

Date:

Astronomy

Dec. 09, 2013 Rise Set
Actual Time 7:28 AM PST 4:25 PM PST
Civil Twilight 6:55 AM PST 4:58 PM PST
Nautical Twilight 6:19 AM PST 5:35 PM PST
Astronomical Twilight 5:43 AM PST 6:10 PM PST
Moon 12:11 PM PST (12/9) No Moon Set
Length of Visible Light 10h 03m
Length of Day
8h 56m
First Quarter, 52% of the Moon is Illuminated
Dec 9
First Quarter
Dec 17
Full
Dec 25
Last Quarter
Jan 1
New
Jan 7
First Quarter

Hourly Weather History & Observations

Time (PST) Temp. Windchill Dew Point Humidity Pressure Visibility Wind Dir Wind Speed Gust Speed Precip Events Conditions
12:56 AM -6.0 °F -16.9 °F -9.9 °F 83% 30.63 in 10.0 mi SSE 4.6 mph - N/A   Clear
1:56 AM -5.1 °F -17.6 °F -9.0 °F 83% 30.62 in 10.0 mi SE 5.8 mph - N/A   Clear
2:56 AM -5.1 °F -15.8 °F -9.0 °F 83% 30.61 in 10.0 mi East 4.6 mph - N/A   Clear
3:56 AM -2.9 °F -15.0 °F -7.1 °F 82% 30.61 in 10.0 mi SE 5.8 mph - N/A   Clear
4:56 AM 1.9 °F -11.8 °F -4.0 °F 76% 30.60 in 10.0 mi East 8.1 mph - N/A   Clear
5:56 AM -0.9 °F -17.4 °F -6.0 °F 79% 30.61 in 10.0 mi NE 10.4 mph - N/A   Clear
6:56 AM 1.0 °F -10.3 °F -4.0 °F 79% 30.61 in 10.0 mi SE 5.8 mph - N/A   Clear
7:56 AM 1.0 °F -6.7 °F -5.1 °F 75% 30.62 in 10.0 mi ESE 3.5 mph - N/A   Clear
8:56 AM 12.9 °F 6.9 °F 1.0 °F 59% 30.61 in 10.0 mi ESE 3.5 mph - N/A   Clear
9:56 AM 17.1 °F 5.8 °F 3.0 °F 54% 30.60 in 10.0 mi SSE 9.2 mph - N/A   Clear
10:56 AM 21.0 °F 12.4 °F 6.1 °F 53% 30.59 in 10.0 mi SSE 6.9 mph - N/A   Clear
11:56 AM 24.1 °F 17.0 °F 7.0 °F 48% 30.56 in 10.0 mi SSE 5.8 mph - N/A   Clear
12:56 PM 27.0 °F 23.0 °F 8.1 °F 45% 30.52 in 10.0 mi ESE 3.5 mph - N/A   Clear
1:56 PM 28.9 °F 25.2 °F 10.0 °F 45% 30.50 in 10.0 mi Variable 3.5 mph - N/A   Clear
2:56 PM 28.9 °F 25.2 °F 10.9 °F 47% 30.49 in 10.0 mi ENE 3.5 mph - N/A   Clear
3:56 PM 26.1 °F 21.9 °F 12.0 °F 55% 30.48 in 10.0 mi ENE 3.5 mph - N/A   Clear
4:56 PM 21.9 °F - 10.9 °F 63% 30.48 in 10.0 mi Calm Calm - N/A   Clear
5:56 PM 14.0 °F - 9.0 °F 80% 30.50 in 10.0 mi Calm Calm - N/A   Clear
6:56 PM 10.9 °F 4.7 °F 6.1 °F 81% 30.50 in 10.0 mi West 3.5 mph - N/A   Clear
7:56 PM 8.1 °F - 5.0 °F 87% 30.51 in 10.0 mi Calm Calm - N/A   Clear
8:56 PM 7.0 °F 0.1 °F 5.0 °F 92% 30.50 in 10.0 mi SW 3.5 mph - N/A   Clear
9:56 PM 8.1 °F -0.5 °F 3.9 °F 83% 30.48 in 10.0 mi ESE 4.6 mph - N/A   Clear
10:56 PM -0.0 °F - -2.9 °F 88% 30.50 in 10.0 mi Calm Calm - N/A   Clear
11:56 PM 7.0 °F -5.7 °F 3.9 °F 87% 30.48 in 10.0 mi SSE 8.1 mph - N/A   Clear